| time (UTC) | temp F | wind direction | speed MPH | gust MPH | rain 1hr in | rain 24hr in | rain mn in | humidity % | barometer mb |
| 20260510224551 | 48 | 74 | 3.0 | 9.0 | 0.00 | 0.00 | 0.00 | 64 | 1014.0 |
| 20260510224039 | 49 | 19 | 4.0 | 9.0 | 0.00 | 0.00 | 0.00 | 64 | 1014.0 |
| 20260510223536 | 49 | 9 | 4.0 | 8.0 | 0.00 | 0.00 | 0.00 | 64 | 1014.0 |
| 20260510223100 | 49 | 30 | 3.0 | 10.0 | 0.00 | 0.00 | 0.00 | 64 | 1013.8 |
| 20260510222537 | 49 | 31 | 3.0 | 10.0 | 0.00 | 0.00 | 0.00 | 64 | 1013.9 |
| 20260510222040 | 49 | 21 | 3.0 | 10.0 | 0.00 | 0.00 | 0.00 | 63 | 1013.9 |
| 20260510221550 | 49 | 53 | 4.0 | 10.0 | 0.00 | 0.00 | 0.00 | 64 | 1013.9 |
| 20260510221036 | 49 | 31 | 3.0 | 9.0 | 0.00 | 0.00 | 0.00 | 64 | 1013.8 |
| 20260510220539 | 50 | 40 | 2.0 | 9.0 | 0.00 | 0.00 | 0.00 | 63 | 1013.8 |
| 20260510220048 | 50 | 36 | 3.0 | 9.0 | 0.00 | 0.00 | 0.00 | 63 | 1013.8 |
| 20260510215537 | 50 | 48 | 3.0 | 9.0 | 0.00 | 0.00 | 0.00 | 63 | 1013.9 |
| 20260510215036 | 50 | 42 | 3.0 | 13.0 | 0.00 | 0.00 | 0.00 | 63 | 1013.9 |
| 20260510214551 | 50 | 33 | 3.0 | 13.0 | 0.00 | 0.00 | 0.00 | 63 | 1014.0 |
| 20260510214036 | 51 | 45 | 4.0 | 13.0 | 0.00 | 0.00 | 0.00 | 63 | 1013.8 |
| 20260510213536 | 51 | 57 | 4.0 | 10.0 | 0.00 | 0.00 | 0.00 | 62 | 1013.9 |
| 20260510213049 | 51 | 5 | 4.0 | 12.0 | 0.00 | 0.00 | 0.00 | 62 | 1013.9 |
| 20260510212536 | 51 | 355 | 3.0 | 12.0 | 0.00 | 0.00 | 0.00 | 62 | 1013.9 |
| 20260510212036 | 51 | 36 | 5.0 | 10.0 | 0.00 | 0.00 | 0.00 | 62 | 1014.0 |
| 20260510211552 | 51 | 35 | 4.0 | 9.0 | 0.00 | 0.00 | 0.00 | 63 | 1014.0 |
| 20260510211038 | 52 | 34 | 3.0 | 10.0 | 0.00 | 0.00 | 0.00 | 63 | 1014.0 |
| 20260510210535 | 52 | 43 | 3.0 | 10.0 | 0.00 | 0.00 | 0.00 | 62 | 1013.9 |
| 20260510210049 | 52 | 46 | 4.0 | 10.0 | 0.00 | 0.00 | 0.00 | 62 | 1013.9 |
| 20260510205537 | 52 | 20 | 4.0 | 10.0 | 0.00 | 0.00 | 0.00 | 62 | 1013.9 |
| 20260510205037 | 52 | 42 | 4.0 | 10.0 | 0.00 | 0.00 | 0.00 | 61 | 1013.8 |
| 20260510204553 | 52 | 10 | 4.0 | 9.0 | 0.00 | 0.00 | 0.00 | 61 | 1013.8 |
| 20260510204037 | 53 | 17 | 4.0 | 11.0 | 0.00 | 0.00 | 0.00 | 61 | 1013.7 |
| 20260510203536 | 53 | 355 | 4.0 | 11.0 | 0.00 | 0.00 | 0.00 | 62 | 1013.8 |
| 20260510203049 | 53 | 13 | 3.0 | 9.0 | 0.00 | 0.00 | 0.00 | 62 | 1013.8 |
| 20260510202551 | 53 | 30 | 3.0 | 7.0 | 0.00 | 0.00 | 0.00 | 61 | 1013.7 |
| 20260510202035 | 53 | 17 | 3.0 | 9.0 | 0.00 | 0.00 | 0.00 | 61 | 1013.8 |
| 20260510201543 | 53 | 43 | 3.0 | 9.0 | 0.00 | 0.00 | 0.00 | 61 | 1013.8 |
| 20260510201036 | 54 | 36 | 4.0 | 9.0 | 0.00 | 0.00 | 0.00 | 61 | 1013.8 |
| 20260510200536 | 54 | 11 | 3.0 | 11.0 | 0.00 | 0.00 | 0.00 | 60 | 1013.7 |
| 20260510200053 | 54 | 49 | 4.0 | 11.0 | 0.00 | 0.00 | 0.00 | 60 | 1013.7 |
| 20260510195535 | 54 | 57 | 6.0 | 12.0 | 0.00 | 0.00 | 0.00 | 60 | 1013.6 |
| 20260510195035 | 54 | 348 | 5.0 | 12.0 | 0.00 | 0.00 | 0.00 | 60 | 1013.8 |
| 20260510194601 | 54 | 49 | 4.0 | 11.0 | 0.00 | 0.00 | 0.00 | 60 | 1013.5 |
| 20260510194036 | 55 | 79 | 4.0 | 11.0 | 0.00 | 0.00 | 0.00 | 60 | 1013.4 |
| 20260510193536 | 55 | 36 | 3.0 | 10.0 | 0.00 | 0.00 | 0.00 | 59 | 1013.4 |
| 20260510193043 | 55 | 10 | 3.0 | 10.0 | 0.00 | 0.00 | 0.00 | 59 | 1013.4 |
| 20260510192603 | 55 | 51 | 4.0 | 14.0 | 0.00 | 0.00 | 0.00 | 59 | 1013.4 |
| 20260510192036 | 55 | 76 | 5.0 | 14.0 | 0.00 | 0.00 | 0.00 | 59 | 1013.3 |
| 20260510191546 | 56 | 28 | 4.0 | 12.0 | 0.00 | 0.00 | 0.00 | 59 | 1013.4 |
| 20260510191038 | 56 | 26 | 4.0 | 11.0 | 0.00 | 0.00 | 0.00 | 59 | 1013.4 |
| 20260510190536 | 56 | 17 | 5.0 | 11.0 | 0.00 | 0.00 | 0.00 | 59 | 1013.4 |
| 20260510190054 | 56 | 5 | 5.0 | 15.0 | 0.00 | 0.00 | 0.00 | 59 | 1013.4 |
| 20260510185536 | 56 | 22 | 6.0 | 17.0 | 0.00 | 0.00 | 0.00 | 59 | 1013.3 |
| 20260510185036 | 56 | 61 | 9.0 | 17.0 | 0.00 | 0.00 | 0.00 | 58 | 1013.4 |
| 20260510184559 | 56 | 26 | 6.0 | 18.0 | 0.00 | 0.00 | 0.00 | 58 | 1013.4 |
| 20260510184036 | 56 | 70 | 7.0 | 18.0 | 0.00 | 0.00 | 0.00 | 58 | 1013.3 |
| 20260510183539 | 57 | 56 | 7.0 | 15.0 | 0.00 | 0.00 | 0.00 | 57 | 1013.4 |
| 20260510183046 | 57 | 360 | 7.0 | 15.0 | 0.00 | 0.00 | 0.00 | 58 | 1013.4 |
| 20260510182553 | 57 | 45 | 4.0 | 13.0 | 0.00 | 0.00 | 0.00 | 58 | 1013.4 |
| 20260510182037 | 57 | 59 | 6.0 | 13.0 | 0.00 | 0.00 | 0.00 | 59 | 1013.3 |
| 20260510181546 | 57 | 75 | 5.0 | 12.0 | 0.00 | 0.00 | 0.00 | 60 | 1013.4 |
| 20260510181038 | 57 | 32 | 6.0 | 14.0 | 0.00 | 0.00 | 0.00 | 60 | 1013.4 |
| 20260510180537 | 57 | 80 | 7.0 | 14.0 | 0.00 | 0.00 | 0.00 | 60 | 1013.5 |
| 20260510180049 | 57 | 57 | 5.0 | 18.0 | 0.00 | 0.00 | 0.00 | 60 | 1013.5 |
| 20260510175536 | 57 | 34 | 8.0 | 18.0 | 0.00 | 0.00 | 0.00 | 60 | 1013.4 |
| 20260510175037 | 57 | 31 | 7.0 | 18.0 | 0.00 | 0.00 | 0.00 | 59 | 1013.4 |
| 20260510174555 | 57 | 70 | 6.0 | 18.0 | 0.00 | 0.00 | 0.00 | 59 | 1013.5 |
| 20260510174040 | 58 | 47 | 6.0 | 16.0 | 0.00 | 0.00 | 0.00 | 59 | 1013.5 |
| 20260510173539 | 58 | 55 | 6.0 | 15.0 | 0.00 | 0.00 | 0.00 | 60 | 1013.5 |
| 20260510173055 | 58 | 41 | 7.0 | 15.0 | 0.00 | 0.00 | 0.00 | 60 | 1013.4 |
| 20260510172541 | 58 | 49 | 9.0 | 15.0 | 0.00 | 0.00 | 0.00 | 60 | 1013.4 |
| 20260510172037 | 58 | 42 | 7.0 | 18.0 | 0.00 | 0.00 | 0.00 | 60 | 1013.4 |
| 20260510171548 | 58 | 48 | 6.0 | 22.0 | 0.00 | 0.00 | 0.00 | 60 | 1013.4 |
| 20260510171036 | 58 | 24 | 9.0 | 22.0 | 0.00 | 0.00 | 0.00 | 59 | 1013.4 |
| 20260510170537 | 58 | 34 | 8.0 | 15.0 | 0.00 | 0.00 | 0.00 | 60 | 1013.5 |
| 20260510170056 | 58 | 360 | 6.0 | 18.0 | 0.00 | 0.00 | 0.00 | 59 | 1013.5 |
| 20260510165537 | 58 | 103 | 6.0 | 18.0 | 0.00 | 0.00 | 0.00 | 59 | 1013.5 |
| 20260510165038 | 59 | 71 | 7.0 | 17.0 | 0.00 | 0.00 | 0.00 | 59 | 1013.6 |
| 20260510164556 | 59 | 71 | 9.0 | 17.0 | 0.00 | 0.00 | 0.00 | 59 | 1013.7 |
| 20260510164037 | 59 | 40 | 9.0 | 18.0 | 0.00 | 0.00 | 0.00 | 59 | 1013.7 |
| 20260510163536 | 59 | 53 | 8.0 | 18.0 | 0.00 | 0.00 | 0.00 | 59 | 1013.8 |
| 20260510163049 | 59 | 12 | 6.0 | 15.0 | 0.00 | 0.00 | 0.00 | 59 | 1013.7 |
| 20260510162552 | 59 | 53 | 6.0 | 15.0 | 0.00 | 0.00 | 0.00 | 59 | 1013.7 |
| 20260510162034 | 59 | 63 | 6.0 | 18.0 | 0.00 | 0.00 | 0.00 | 59 | 1013.8 |
| 20260510161552 | 59 | 64 | 6.0 | 18.0 | 0.00 | 0.00 | 0.00 | 58 | 1013.7 |
| 20260510161036 | 60 | 32 | 6.0 | 17.0 | 0.00 | 0.00 | 0.00 | 59 | 1013.8 |
| 20260510160536 | 60 | 34 | 6.0 | 18.0 | 0.00 | 0.00 | 0.00 | 59 | 1013.9 |
| 20260510160047 | 60 | 63 | 8.0 | 18.0 | 0.00 | 0.00 | 0.00 | 58 | 1013.9 |
| 20260510155536 | 60 | 46 | 8.0 | 20.0 | 0.00 | 0.00 | 0.00 | 58 | 1013.9 |
| 20260510155033 | 60 | 36 | 8.0 | 20.0 | 0.00 | 0.00 | 0.00 | 58 | 1014.0 |
| 20260510154553 | 60 | 44 | 10.0 | 20.0 | 0.00 | 0.00 | 0.00 | 58 | 1014.1 |
| 20260510154036 | 60 | 19 | 7.0 | 20.0 | 0.00 | 0.00 | 0.00 | 59 | 1013.9 |
| 20260510153535 | 60 | 37 | 10.0 | 20.0 | 0.00 | 0.00 | 0.00 | 59 | 1014.1 |
| 20260510153049 | 60 | 38 | 7.0 | 19.0 | 0.00 | 0.00 | 0.00 | 59 | 1014.0 |
| 20260510152536 | 59 | 52 | 9.0 | 19.0 | 0.00 | 0.00 | 0.00 | 59 | 1014.1 |
| 20260510152033 | 60 | 25 | 9.0 | 17.0 | 0.00 | 0.00 | 0.00 | 59 | 1014.1 |
| 20260510151553 | 60 | 344 | 6.0 | 17.0 | 0.00 | 0.00 | 0.00 | 59 | 1014.1 |
| 20260510151033 | 59 | 60 | 8.0 | 21.0 | 0.00 | 0.00 | 0.00 | 59 | 1014.2 |
| 20260510150537 | 59 | 62 | 8.0 | 21.0 | 0.00 | 0.00 | 0.00 | 60 | 1014.2 |
| 20260510150105 | 60 | 58 | 10.0 | 24.0 | 0.00 | 0.00 | 0.00 | 60 | 1014.2 |
| 20260510145536 | 60 | 53 | 10.0 | 24.0 | 0.00 | 0.00 | 0.00 | 60 | 1014.2 |
| 20260510145036 | 60 | 22 | 10.0 | 24.0 | 0.00 | 0.00 | 0.00 | 59 | 1014.3 |
| 20260510144607 | 60 | 63 | 10.0 | 19.0 | 0.00 | 0.00 | 0.00 | 59 | 1014.4 |
| 20260510144036 | 60 | 34 | 10.0 | 19.0 | 0.00 | 0.00 | 0.00 | 59 | 1014.2 |
| 20260510143536 | 60 | 35 | 7.0 | 18.0 | 0.00 | 0.00 | 0.00 | 59 | 1014.3 |
| 20260510143047 | 60 | 43 | 10.0 | 22.0 | 0.00 | 0.00 | 0.00 | 59 | 1014.4 |
| 20260510142536 | 60 | 20 | 9.0 | 22.0 | 0.00 | 0.00 | 0.00 | 59 | 1014.4 |
| 20260510142036 | 60 | 56 | 10.0 | 22.0 | 0.00 | 0.00 | 0.00 | 58 | 1014.4 |
| 20260510141551 | 60 | 61 | 9.0 | 21.0 | 0.00 | 0.00 | 0.00 | 58 | 1014.4 |
| 20260510141035 | 60 | 55 | 11.0 | 23.0 | 0.00 | 0.00 | 0.00 | 58 | 1014.6 |
| 20260510140538 | 60 | 56 | 10.0 | 23.0 | 0.00 | 0.00 | 0.00 | 59 | 1014.6 |
| 20260510140047 | 60 | 355 | 10.0 | 18.0 | 0.00 | 0.00 | 0.00 | 58 | 1014.7 |
| 20260510135535 | 61 | 36 | 7.0 | 19.0 | 0.00 | 0.00 | 0.00 | 58 | 1014.7 |
| 20260510135037 | 61 | 42 | 6.0 | 19.0 | 0.00 | 0.00 | 0.00 | 58 | 1014.6 |
| 20260510134548 | 61 | 58 | 10.0 | 20.0 | 0.00 | 0.00 | 0.00 | 57 | 1014.7 |
| 20260510134035 | 61 | 94 | 9.0 | 20.0 | 0.00 | 0.00 | 0.00 | 57 | 1014.8 |
| 20260510133535 | 61 | 63 | 7.0 | 17.0 | 0.00 | 0.00 | 0.00 | 56 | 1014.8 |
| 20260510133047 | 62 | 52 | 7.0 | 18.0 | 0.00 | 0.00 | 0.00 | 56 | 1014.8 |
| 20260510132536 | 62 | 35 | 6.0 | 18.0 | 0.00 | 0.00 | 0.00 | 55 | 1014.9 |
| 20260510132036 | 62 | 72 | 6.0 | 18.0 | 0.00 | 0.00 | 0.00 | 57 | 1014.9 |
| 20260510131546 | 61 | 98 | 9.0 | 20.0 | 0.00 | 0.00 | 0.00 | 56 | 1015.0 |
| 20260510131034 | 61 | 77 | 9.0 | 20.0 | 0.00 | 0.00 | 0.00 | 57 | 1015.0 |
| 20260510130536 | 61 | 72 | 9.0 | 20.0 | 0.00 | 0.00 | 0.00 | 55 | 1014.9 |
| 20260510130042 | 62 | 53 | 8.0 | 20.0 | 0.00 | 0.00 | 0.00 | 54 | 1015.0 |
| 20260510125534 | 62 | 49 | 9.0 | 23.0 | 0.00 | 0.00 | 0.00 | 55 | 1015.0 |
| 20260510125033 | 62 | 41 | 8.0 | 23.0 | 0.00 | 0.00 | 0.00 | 55 | 1015.0 |
| 20260510124549 | 62 | 51 | 9.0 | 23.0 | 0.00 | 0.00 | 0.00 | 55 | 1015.2 |
| 20260510124034 | 62 | 46 | 8.0 | 20.0 | 0.00 | 0.00 | 0.00 | 55 | 1015.2 |
| 20260510123537 | 62 | 82 | 9.0 | 16.0 | 0.00 | 0.00 | 0.00 | 54 | 1015.1 |
| 20260510123047 | 62 | 5 | 7.0 | 16.0 | 0.00 | 0.00 | 0.00 | 53 | 1015.1 |
| 20260510122536 | 62 | 90 | 7.0 | 15.0 | 0.00 | 0.00 | 0.00 | 54 | 1015.0 |
| 20260510122035 | 62 | 43 | 8.0 | 15.0 | 0.00 | 0.00 | 0.00 | 54 | 1015.1 |
| 20260510121547 | 62 | 46 | 6.0 | 13.0 | 0.00 | 0.00 | 0.00 | 55 | 1015.2 |
| 20260510121036 | 61 | 98 | 6.0 | 20.0 | 0.00 | 0.00 | 0.00 | 56 | 1015.2 |
| 20260510120536 | 61 | 48 | 7.0 | 20.0 | 0.00 | 0.00 | 0.00 | 55 | 1015.3 |
| 20260510120042 | 61 | 294 | 8.0 | 19.0 | 0.00 | 0.00 | 0.00 | 55 | 1015.4 |
| 20260510115536 | 61 | 91 | 11.0 | 19.0 | 0.00 | 0.00 | 0.00 | 55 | 1015.5 |
| 20260510115034 | 61 | 51 | 7.0 | 16.0 | 0.00 | 0.00 | 0.00 | 56 | 1015.5 |
| 20260510114603 | 61 | 35 | 6.0 | 22.0 | 0.00 | 0.00 | 0.00 | 57 | 1015.4 |
| 20260510114034 | 61 | 53 | 7.0 | 22.0 | 0.00 | 0.00 | 0.00 | 57 | 1015.5 |
| 20260510113536 | 60 | 40 | 10.0 | 21.0 | 0.00 | 0.00 | 0.00 | 57 | 1015.5 |
| 20260510113055 | 60 | 47 | 9.0 | 21.0 | 0.00 | 0.00 | 0.00 | 57 | 1015.6 |
| 20260510112534 | 60 | 63 | 10.0 | 21.0 | 0.00 | 0.00 | 0.00 | 57 | 1015.7 |
| 20260510112034 | 60 | 34 | 10.0 | 20.0 | 0.00 | 0.00 | 0.00 | 57 | 1015.7 |
| 20260510111548 | 60 | 57 | 9.0 | 20.0 | 0.00 | 0.00 | 0.00 | 58 | 1015.7 |
| 20260510111036 | 60 | 21 | 8.0 | 20.0 | 0.00 | 0.00 | 0.00 | 57 | 1015.8 |
| 20260510110535 | 60 | 26 | 10.0 | 20.0 | 0.00 | 0.00 | 0.00 | 57 | 1015.8 |
| 20260510110046 | 60 | 65 | 12.0 | 20.0 | 0.00 | 0.00 | 0.00 | 57 | 1015.9 |
| 20260510105541 | 59 | 59 | 8.0 | 22.0 | 0.00 | 0.00 | 0.00 | 59 | 1016.0 |
| 20260510105037 | 59 | 42 | 9.0 | 22.0 | 0.00 | 0.00 | 0.00 | 59 | 1015.9 |
| 20260510104556 | 59 | 15 | 11.0 | 21.0 | 0.00 | 0.00 | 0.00 | 59 | 1016.0 |
| 20260510104036 | 59 | 26 | 8.0 | 20.0 | 0.00 | 0.00 | 0.00 | 60 | 1015.9 |
| 20260510103536 | 58 | 54 | 11.0 | 20.0 | 0.00 | 0.00 | 0.00 | 60 | 1016.0 |
| 20260510103046 | 59 | 21 | 8.0 | 20.0 | 0.00 | 0.00 | 0.00 | 60 | 1016.1 |
| 20260510102536 | 59 | 71 | 7.0 | 20.0 | 0.00 | 0.00 | 0.00 | 59 | 1016.0 |
| 20260510102037 | 59 | 45 | 8.0 | 20.0 | 0.00 | 0.00 | 0.00 | 59 | 1016.1 |
| 20260510101548 | 59 | 57 | 8.0 | 21.0 | 0.00 | 0.00 | 0.00 | 59 | 1016.3 |
| 20260510101039 | 59 | 71 | 9.0 | 21.0 | 0.00 | 0.00 | 0.00 | 60 | 1016.2 |
| 20260510100536 | 59 | 48 | 10.0 | 21.0 | 0.00 | 0.00 | 0.00 | 60 | 1016.3 |
| 20260510100059 | 59 | 51 | 13.0 | 21.0 | 0.00 | 0.00 | 0.00 | 60 | 1016.3 |
| 20260510095536 | 58 | 103 | 11.0 | 21.0 | 0.00 | 0.00 | 0.00 | 61 | 1016.4 |
| 20260510095036 | 58 | 329 | 10.0 | 24.0 | 0.00 | 0.00 | 0.00 | 62 | 1016.4 |
| 20260510094552 | 57 | 49 | 11.0 | 24.0 | 0.00 | 0.00 | 0.00 | 63 | 1016.4 |
| 20260510094036 | 57 | 85 | 8.0 | 29.0 | 0.00 | 0.00 | 0.00 | 65 | 1016.4 |
| 20260510093535 | 56 | 43 | 11.0 | 29.0 | 0.00 | 0.00 | 0.00 | 65 | 1016.4 |
| 20260510093045 | 56 | 55 | 9.0 | 22.0 | 0.00 | 0.00 | 0.00 | 66 | 1016.4 |
| 20260510092534 | 56 | 74 | 11.0 | 22.0 | 0.00 | 0.00 | 0.00 | 65 | 1016.4 |
| 20260510092033 | 56 | 61 | 9.0 | 21.0 | 0.00 | 0.00 | 0.00 | 66 | 1016.4 |
| 20260510091543 | 55 | 59 | 9.0 | 18.0 | 0.00 | 0.00 | 0.00 | 68 | 1016.4 |
| 20260510091033 | 55 | 13 | 10.0 | 18.0 | 0.00 | 0.00 | 0.00 | 68 | 1016.6 |
| 20260510090536 | 55 | 355 | 7.0 | 18.0 | 0.00 | 0.00 | 0.00 | 70 | 1016.6 |
| 20260510090049 | 54 | 52 | 9.0 | 18.0 | 0.00 | 0.00 | 0.00 | 70 | 1016.5 |
| 20260510085537 | 54 | 69 | 7.0 | 16.0 | 0.00 | 0.00 | 0.00 | 70 | 1016.5 |
| 20260510085037 | 54 | 15 | 8.0 | 17.0 | 0.00 | 0.00 | 0.00 | 71 | 1016.5 |
| 20260510084546 | 54 | 38 | 9.0 | 20.0 | 0.00 | 0.00 | 0.00 | 71 | 1016.6 |
| 20260510084036 | 54 | 44 | 7.0 | 20.0 | 0.00 | 0.00 | 0.00 | 71 | 1016.5 |
| 20260510083536 | 54 | 38 | 9.0 | 20.0 | 0.00 | 0.00 | 0.00 | 71 | 1016.5 |
| 20260510083047 | 54 | 60 | 9.0 | 20.0 | 0.00 | 0.00 | 0.00 | 71 | 1016.6 |
| 20260510082537 | 53 | 55 | 7.0 | 22.0 | 0.00 | 0.00 | 0.00 | 71 | 1016.6 |
| 20260510082036 | 53 | 329 | 12.0 | 22.0 | 0.00 | 0.00 | 0.00 | 71 | 1016.6 |
| 20260510081550 | 53 | 5 | 9.0 | 19.0 | 0.00 | 0.00 | 0.00 | 72 | 1016.6 |
| 20260510081035 | 53 | 46 | 11.0 | 25.0 | 0.00 | 0.00 | 0.00 | 72 | 1016.6 |
| 20260510080534 | 52 | 42 | 10.0 | 25.0 | 0.00 | 0.00 | 0.00 | 72 | 1016.5 |
| 20260510080051 | 52 | 64 | 9.0 | 22.0 | 0.00 | 0.00 | 0.00 | 72 | 1016.6 |
| 20260510075537 | 52 | 69 | 8.0 | 22.0 | 0.00 | 0.00 | 0.00 | 73 | 1016.6 |
| 20260510075033 | 52 | 64 | 10.0 | 22.0 | 0.00 | 0.00 | 0.00 | 72 | 1016.6 |
| 20260510074559 | 52 | 80 | 9.0 | 19.0 | 0.00 | 0.00 | 0.00 | 73 | 1016.5 |
| 20260510074034 | 52 | 23 | 9.0 | 21.0 | 0.00 | 0.00 | 0.00 | 73 | 1016.6 |
| 20260510073533 | 52 | 61 | 9.0 | 21.0 | 0.00 | 0.00 | 0.00 | 73 | 1016.4 |
| 20260510073053 | 52 | 51 | 7.0 | 21.0 | 0.00 | 0.00 | 0.00 | 73 | 1016.5 |
| 20260510072536 | 52 | 34 | 7.0 | 20.0 | 0.00 | 0.00 | 0.00 | 73 | 1016.5 |
| 20260510072038 | 52 | 360 | 10.0 | 20.0 | 0.00 | 0.00 | 0.00 | 73 | 1016.5 |
| 20260510071551 | 52 | 36 | 10.0 | 20.0 | 0.00 | 0.00 | 0.00 | 73 | 1016.4 |
| 20260510071036 | 52 | 23 | 10.0 | 23.0 | 0.00 | 0.00 | 0.00 | 73 | 1016.4 |
| 20260510070536 | 52 | 49 | 9.0 | 23.0 | 0.00 | 0.00 | 0.00 | 74 | 1016.4 |
| 20260510070105 | 51 | 64 | 7.0 | 19.0 | 0.00 | 0.00 | 0.00 | 74 | 1016.4 |
| 20260510065537 | 51 | 42 | 7.0 | 19.0 | 0.00 | 0.00 | 0.00 | 74 | 1016.4 |
| 20260510065035 | 51 | 33 | 9.0 | 22.0 | 0.00 | 0.00 | 0.00 | 75 | 1016.3 |
| 20260510064555 | 51 | 26 | 10.0 | 22.0 | 0.00 | 0.00 | 0.00 | 75 | 1016.3 |
| 20260510064033 | 51 | 37 | 10.0 | 19.0 | 0.00 | 0.00 | 0.00 | 75 | 1016.5 |
| 20260510063536 | 51 | 22 | 9.0 | 18.0 | 0.00 | 0.00 | 0.00 | 75 | 1016.4 |
| 20260510063046 | 51 | 43 | 9.0 | 18.0 | 0.00 | 0.00 | 0.00 | 75 | 1016.4 |
| 20260510062534 | 51 | 347 | 8.0 | 19.0 | 0.00 | 0.00 | 0.00 | 75 | 1016.3 |
| 20260510062036 | 51 | 17 | 9.0 | 19.0 | 0.00 | 0.00 | 0.00 | 75 | 1016.4 |
| 20260510061552 | 51 | 58 | 8.0 | 19.0 | 0.00 | 0.00 | 0.00 | 76 | 1016.3 |
| 20260510061037 | 51 | 29 | 8.0 | 16.0 | 0.00 | 0.00 | 0.00 | 76 | 1016.3 |
| 20260510060537 | 50 | 240 | 5.0 | 15.0 | 0.00 | 0.00 | 0.00 | 76 | 1016.3 |
| 20260510060052 | 50 | 34 | 7.0 | 15.0 | 0.00 | 0.00 | 0.00 | 76 | 1016.2 |
| 20260510055536 | 50 | 45 | 9.0 | 18.0 | 0.00 | 0.00 | 0.00 | 76 | 1016.2 |
| 20260510055035 | 50 | 58 | 7.0 | 18.0 | 0.00 | 0.00 | 0.00 | 77 | 1016.2 |
| 20260510054549 | 50 | 46 | 7.0 | 16.0 | 0.00 | 0.00 | 0.00 | 76 | 1016.2 |
| 20260510054037 | 50 | 129 | 8.0 | 16.0 | 0.00 | 0.00 | 0.00 | 76 | 1016.2 |
| 20260510053536 | 50 | 47 | 7.0 | 23.0 | 0.00 | 0.00 | 0.00 | 76 | 1016.3 |
| 20260510053047 | 50 | 59 | 8.0 | 23.0 | 0.00 | 0.00 | 0.00 | 76 | 1016.2 |
| 20260510052536 | 50 | 22 | 6.0 | 17.0 | 0.00 | 0.00 | 0.00 | 76 | 1016.3 |
| 20260510052036 | 50 | 22 | 7.0 | 17.0 | 0.00 | 0.00 | 0.00 | 76 | 1016.3 |
| 20260510051548 | 50 | 54 | 7.0 | 17.0 | 0.00 | 0.00 | 0.00 | 76 | 1016.3 |
| 20260510051036 | 50 | 26 | 6.0 | 21.0 | 0.00 | 0.00 | 0.00 | 76 | 1016.3 |
| 20260510050537 | 50 | 9 | 6.0 | 21.0 | 0.00 | 0.00 | 0.00 | 76 | 1016.3 |
| 20260510050053 | 50 | 24 | 7.0 | 15.0 | 0.00 | 0.00 | 0.00 | 76 | 1016.3 |
| 20260510045536 | 50 | 59 | 6.0 | 15.0 | 0.00 | 0.00 | 0.00 | 75 | 1016.4 |
| 20260510045035 | 50 | 62 | 4.0 | 17.0 | 0.00 | 0.00 | 0.00 | 75 | 1016.4 |
| 20260510044548 | 50 | 61 | 6.0 | 17.0 | 0.00 | 0.00 | 0.00 | 75 | 1016.3 |
| 20260510044036 | 51 | 58 | 6.0 | 13.0 | 0.00 | 0.00 | 0.00 | 75 | 1016.3 |
| 20260510043536 | 51 | 32 | 5.0 | 14.0 | 0.00 | 0.00 | 0.00 | 74 | 1016.2 |
| 20260510043042 | 51 | 27 | 7.0 | 14.0 | 0.00 | 0.00 | 0.00 | 75 | 1016.2 |
| 20260510042537 | 51 | 320 | 6.0 | 14.0 | 0.00 | 0.00 | 0.00 | 74 | 1016.2 |
| 20260510042039 | 51 | 33 | 4.0 | 14.0 | 0.00 | 0.00 | 0.00 | 74 | 1016.3 |
| 20260510041556 | 51 | 16 | 5.0 | 14.0 | 0.00 | 0.00 | 0.00 | 73 | 1016.3 |
| 20260510041037 | 52 | 45 | 5.0 | 12.0 | 0.00 | 0.00 | 0.00 | 73 | 1016.4 |
| 20260510040540 | 52 | 15 | 4.0 | 15.0 | 0.00 | 0.00 | 0.00 | 73 | 1016.4 |
| 20260510040052 | 52 | 42 | 5.0 | 15.0 | 0.00 | 0.00 | 0.00 | 73 | 1016.4 |
| 20260510035537 | 52 | 42 | 7.0 | 14.0 | 0.00 | 0.00 | 0.00 | 72 | 1016.4 |
| 20260510035036 | 52 | 87 | 7.0 | 13.0 | 0.00 | 0.00 | 0.00 | 72 | 1016.5 |
| 20260510034549 | 52 | 26 | 4.0 | 14.0 | 0.00 | 0.00 | 0.00 | 71 | 1016.4 |
| 20260510034036 | 52 | 60 | 6.0 | 14.0 | 0.00 | 0.00 | 0.00 | 71 | 1016.5 |
| 20260510033535 | 53 | 71 | 6.0 | 14.0 | 0.00 | 0.00 | 0.00 | 71 | 1016.4 |
| 20260510033103 | 53 | 38 | 6.0 | 15.0 | 0.00 | 0.00 | 0.00 | 70 | 1016.5 |
| 20260510032538 | 53 | 67 | 6.0 | 15.0 | 0.00 | 0.00 | 0.00 | 69 | 1016.6 |
| 20260510032036 | 53 | 41 | 6.0 | 15.0 | 0.00 | 0.00 | 0.00 | 68 | 1016.7 |
| 20260510031543 | 53 | 26 | 6.0 | 13.0 | 0.00 | 0.00 | 0.00 | 67 | 1016.7 |
| 20260510031037 | 53 | 46 | 6.0 | 13.0 | 0.00 | 0.00 | 0.00 | 66 | 1016.7 |
| 20260510030537 | 53 | 42 | 6.0 | 13.0 | 0.00 | 0.00 | 0.00 | 65 | 1016.8 |
| 20260510030048 | 54 | 41 | 5.0 | 13.0 | 0.00 | 0.00 | 0.00 | 64 | 1016.8 |
| 20260510025537 | 54 | 45 | 6.0 | 13.0 | 0.00 | 0.00 | 0.00 | 63 | 1016.8 |
| 20260510025037 | 54 | 340 | 4.0 | 13.0 | 0.00 | 0.00 | 0.00 | 62 | 1016.7 |
| 20260510024545 | 54 | 5 | 6.0 | 13.0 | 0.00 | 0.00 | 0.00 | 61 | 1016.8 |
| 20260510024037 | 55 | 344 | 4.0 | 12.0 | 0.00 | 0.00 | 0.00 | 61 | 1016.8 |
| 20260510023537 | 55 | 39 | 5.0 | 12.0 | 0.00 | 0.00 | 0.00 | 60 | 1016.8 |
| 20260510023047 | 55 | 94 | 4.0 | 12.0 | 0.00 | 0.00 | 0.00 | 60 | 1016.8 |
| 20260510022536 | 55 | 13 | 5.0 | 13.0 | 0.00 | 0.00 | 0.00 | 60 | 1016.8 |
| 20260510022036 | 55 | 34 | 3.0 | 16.0 | 0.00 | 0.00 | 0.00 | 60 | 1016.5 |
| 20260510021547 | 55 | 57 | 8.0 | 16.0 | 0.00 | 0.00 | 0.00 | 59 | 1016.4 |
| 20260510021035 | 56 | 52 | 5.0 | 15.0 | 0.00 | 0.00 | 0.00 | 59 | 1016.4 |
| 20260510020536 | 56 | 27 | 5.0 | 15.0 | 0.00 | 0.00 | 0.00 | 59 | 1016.4 |
| 20260510020045 | 56 | 21 | 5.0 | 14.0 | 0.00 | 0.00 | 0.00 | 58 | 1016.4 |
| 20260510015536 | 56 | 21 | 7.0 | 14.0 | 0.00 | 0.00 | 0.00 | 58 | 1016.4 |
| 20260510015038 | 56 | 30 | 6.0 | 14.0 | 0.00 | 0.00 | 0.00 | 57 | 1016.4 |
| 20260510014543 | 56 | 59 | 5.0 | 13.0 | 0.00 | 0.00 | 0.00 | 56 | 1016.4 |
| 20260510014033 | 56 | 5 | 4.0 | 14.0 | 0.00 | 0.00 | 0.00 | 56 | 1016.4 |
| 20260510013534 | 56 | 5 | 6.0 | 14.0 | 0.00 | 0.00 | 0.00 | 55 | 1016.5 |
| 20260510013044 | 56 | 65 | 5.0 | 14.0 | 0.00 | 0.00 | 0.00 | 55 | 1016.5 |
| 20260510012535 | 57 | 44 | 6.0 | 14.0 | 0.00 | 0.00 | 0.00 | 54 | 1016.4 |
| 20260510012036 | 57 | 57 | 4.0 | 12.0 | 0.00 | 0.00 | 0.00 | 54 | 1016.4 |
| 20260510011541 | 57 | 17 | 4.0 | 12.0 | 0.00 | 0.00 | 0.00 | 54 | 1016.4 |
| 20260510011037 | 57 | 60 | 5.0 | 12.0 | 0.00 | 0.00 | 0.00 | 53 | 1016.6 |
| 20260510010536 | 57 | 40 | 3.0 | 11.0 | 0.00 | 0.00 | 0.00 | 53 | 1016.6 |
| 20260510010058 | 57 | 67 | 3.0 | 14.0 | 0.00 | 0.00 | 0.00 | 53 | 1016.6 |
| 20260510005536 | 57 | 54 | 4.0 | 14.0 | 0.00 | 0.00 | 0.00 | 53 | 1016.6 |
| 20260510005037 | 57 | 41 | 7.0 | 14.0 | 0.00 | 0.00 | 0.00 | 52 | 1016.5 |
| 20260510004546 | 58 | 63 | 7.0 | 14.0 | 0.00 | 0.00 | 0.00 | 52 | 1016.6 |
| 20260510004036 | 58 | 63 | 7.0 | 14.0 | 0.00 | 0.00 | 0.00 | 51 | 1016.5 |
| 20260510003534 | 58 | 98 | 5.0 | 13.0 | 0.00 | 0.00 | 0.00 | 51 | 1016.6 |
| 20260510003058 | 58 | 57 | 7.0 | 14.0 | 0.00 | 0.00 | 0.00 | 50 | 1016.5 |
| 20260510002535 | 58 | 85 | 4.0 | 14.0 | 0.00 | 0.00 | 0.00 | 51 | 1016.5 |
| 20260510002036 | 58 | 25 | 5.0 | 14.0 | 0.00 | 0.00 | 0.00 | 50 | 1016.5 |
| 20260510001550 | 58 | 41 | 4.0 | 11.0 | 0.00 | 0.00 | 0.00 | 50 | 1016.5 |
| 20260510001037 | 58 | 24 | 4.0 | 12.0 | 0.00 | 0.00 | 0.00 | 50 | 1016.6 |
| 20260510000534 | 58 | 51 | 4.0 | 14.0 | 0.00 | 0.00 | 0.00 | 49 | 1016.6 |
| 20260510000052 | 59 | 58 | 6.0 | 14.0 | 0.00 | 0.00 | 0.00 | 49 | 1016.6 |
| 20260509235534 | 59 | 62 | 4.0 | 14.0 | 0.00 | 0.00 | 0.00 | 49 | 1016.6 |
| 20260509235035 | 59 | 59 | 4.0 | 12.0 | 0.00 | 0.00 | 0.00 | 49 | 1016.6 |
| 20260509234603 | 59 | 45 | 3.0 | 10.0 | 0.00 | 0.00 | 0.00 | 49 | 1016.6 |
| 20260509234035 | 59 | 52 | 4.0 | 10.0 | 0.00 | 0.00 | 0.00 | 49 | 1016.5 |
| 20260509233537 | 59 | 71 | 3.0 | 10.0 | 0.00 | 0.00 | 0.00 | 49 | 1016.5 |
| 20260509233045 | 59 | 49 | 3.0 | 9.0 | 0.00 | 0.00 | 0.00 | 49 | 1016.6 |
| 20260509232534 | 59 | 33 | 5.0 | 11.0 | 0.00 | 0.00 | 0.00 | 49 | 1016.5 |
| 20260509232036 | 60 | 65 | 4.0 | 11.0 | 0.00 | 0.00 | 0.00 | 49 | 1016.5 |
| 20260509231546 | 60 | 26 | 4.0 | 11.0 | 0.00 | 0.00 | 0.00 | 49 | 1016.5 |
| 20260509231035 | 60 | 69 | 5.0 | 12.0 | 0.00 | 0.00 | 0.00 | 49 | 1016.5 |
| 20260509230534 | 60 | 68 | 5.0 | 12.0 | 0.00 | 0.00 | 0.00 | 49 | 1016.5 |
| 20260509230048 | 60 | 63 | 3.0 | 10.0 | 0.00 | 0.00 | 0.00 | 49 | 1016.4 |
| 20260509225539 | 60 | 69 | 3.0 | 10.0 | 0.00 | 0.00 | 0.00 | 50 | 1016.4 |
| 20260509225035 | 60 | 42 | 2.0 | 8.0 | 0.00 | 0.00 | 0.00 | 50 | 1016.3 |